TimePDT,TemperatureF,Dew PointF,Humidity,Sea Level PressureIn,VisibilityMPH,Wind Direction,Wind SpeedMPH,Gust SpeedMPH,PrecipitationIn,Events,Conditions,WindDirDegrees,DateUTC
12:54 AM,55.9,52.0,87,29.71,9.0,SW,5.8,-,N/A,,Overcast,220,2013-06-03 07:54:00
1:43 AM,55.4,51.8,88,29.73,9.0,SSW,10.4,-,N/A,,Overcast,210,2013-06-03 08:43:00
1:54 AM,55.9,52.0,87,29.71,10.0,SSW,10.4,-,N/A,,Overcast,200,2013-06-03 08:54:00
2:54 AM,55.0,51.1,86,29.71,10.0,South,10.4,-,N/A,,Mostly Cloudy,190,2013-06-03 09:54:00
3:04 AM,55.4,51.8,88,29.74,10.0,South,8.1,-,N/A,,Scattered Clouds,180,2013-06-03 10:04:00
3:54 AM,55.0,52.0,89,29.71,10.0,South,5.8,-,N/A,,Mostly Cloudy,170,2013-06-03 10:54:00
4:12 AM,53.6,51.8,94,29.74,10.0,South,5.8,-,N/A,,Scattered Clouds,190,2013-06-03 11:12:00
4:54 AM,54.0,51.1,90,29.72,10.0,South,4.6,-,N/A,,Mostly Cloudy,180,2013-06-03 11:54:00
5:54 AM,53.1,50.0,89,29.73,7.0,SSW,3.5,-,N/A,,Mostly Cloudy,210,2013-06-03 12:54:00
6:54 AM,54.0,52.0,93,29.74,7.0,Calm,Calm,-,N/A,,Scattered Clouds,0,2013-06-03 13:54:00
7:54 AM,57.9,51.1,78,29.76,10.0,WSW,4.6,-,N/A,,Scattered Clouds,240,2013-06-03 14:54:00
8:47 AM,60.8,51.8,72,29.79,10.0,SSW,6.9,-,N/A,,Mostly Cloudy,210,2013-06-03 15:47:00
8:54 AM,61.0,52.0,72,29.77,10.0,WSW,6.9,-,N/A,,Mostly Cloudy,240,2013-06-03 15:54:00
9:10 AM,60.8,51.8,72,29.80,10.0,SW,6.9,-,N/A,,Scattered Clouds,220,2013-06-03 16:10:00
9:54 AM,64.0,52.0,65,29.78,10.0,SSW,9.2,-,N/A,,Clear,210,2013-06-03 16:54:00
10:54 AM,66.9,53.1,61,29.78,10.0,South,12.7,-,N/A,,Clear,190,2013-06-03 17:54:00
11:54 AM,68.0,53.1,59,29.78,10.0,South,15.0,-,N/A,,Clear,190,2013-06-03 18:54:00
12:54 PM,70.0,53.1,55,29.78,10.0,SSW,19.6,25.3,N/A,,Clear,200,2013-06-03 19:54:00
1:54 PM,70.0,53.1,55,29.78,10.0,SSW,21.9,-,N/A,,Clear,200,2013-06-03 20:54:00
2:54 PM,72.0,54.0,53,29.78,10.0,SSW,19.6,27.6,N/A,,Clear,200,2013-06-03 21:54:00
3:54 PM,71.1,54.0,55,29.77,10.0,SSW,21.9,27.6,N/A,,Clear,200,2013-06-03 22:54:00
4:54 PM,75.0,53.1,46,29.77,10.0,WSW,16.1,20.7,N/A,,Clear,240,2013-06-03 23:54:00
5:54 PM,71.1,52.0,51,29.77,10.0,WSW,13.8,20.7,N/A,,Clear,240,2013-06-04 00:54:00
6:54 PM,69.1,51.1,53,29.77,10.0,West,15.0,23.0,N/A,,Clear,270,2013-06-04 01:54:00
7:54 PM,64.0,51.1,63,29.79,10.0,West,18.4,-,N/A,,Clear,270,2013-06-04 02:54:00
8:54 PM,60.1,50.0,69,29.81,10.0,West,16.1,-,N/A,,Clear,280,2013-06-04 03:54:00
9:54 PM,57.0,48.9,74,29.83,10.0,WNW,13.8,-,N/A,,Clear,290,2013-06-04 04:54:00
10:54 PM,55.9,48.9,77,29.84,10.0,WNW,9.2,-,N/A,,Clear,290,2013-06-04 05:54:00
11:54 PM,55.9,48.9,77,29.84,10.0,WNW,12.7,-,N/A,,Clear,290,2013-06-04 06:54:00